Regional Weather Roundup
Issued by NWS Goodland, KS

Home | Current Version | Previous Version | Graphics & Text | Print | Product List | Glossary On
Versions: 1 2 3 4 5 6 7 8 9 10 11 12 13 14 15 16 17 18 19 20 21 22 23 24 25 26 27 28 29 30 31 32 33 34 35 36 37 38 39 40 41 42 43 44 45 46 47 48 49 50
000
ASUS43 KGLD 241008
RWRGLD

GOODLAND FORECAST AREA HOURLY WEATHER ROUNDUP
NATIONAL WEATHER SERVICE GOODLAND KS
400 AM MDT TUE APR 24 2018

...OFFICIAL OBSERVATIONS...

CITY           SKY/WX    TMP DP  RH WIND       PRES   REMARKS
GOODLAND KS    RAIN      41  40  96 N20G32    30.21S FOG
HILL CITY KS   CLOUDY    46  42  86 NW3       30.13S
IMPERIAL NEB   LGT RAIN  41  39  93 NW18G28   30.23R
MCCOOK NEB     MOCLDY    51  47  86 NW15      30.16R
AKRON CO       FLURRIES  33  33 100 N21       30.29S
BURLINGTON CO  CLOUDY    40  39  97 N18G32    30.25R
LIMON CO       CLOUDY    35  33  92 N23G37    30.26S
$$

...UNOFFICIAL OBSERVATIONS...

CITY           SKY/WX    TMP DP  RH WIND       PRES   REMARKS
COLBY KS       RAIN      50  50 100 NW15      30.21R
NORTON KS      CLOUDY    48  43  81 W8        30.13
KIT CARSON CO    N/A     41  37  86 MISG        N/A
YUMA CO        RAIN      36  32  87 NW17G25   30.28R
$$



USA.gov is the U.S. government's official web portal to all federal, state and local government web resources and services.